Alexandria, Egypt

6:47 PM EET on May 23, 2017 (GMT +0200)
Alexandria

Weather History for HEAX - October, 2012

Change the Weather History Date:

Saturday, October 6, 2012

  Actual Average Record
Temperature  
Mean Temperature 78 °F -  
Max Temperature 84 °F 77 °F 84 °F (1999)
Min Temperature 73 °F 63 °F 60 °F (1996)
Cooling Degree Days 14    
Growing Degree Days 28 (Base 50)    
Moisture  
Dew Point 67 °F    
Average Humidity 66    
Maximum Humidity 78    
Minimum Humidity 44    
Precipitation  
Precipitation 0.00 in 0.02 in - ()
Sea Level Pressure  
Sea Level Pressure 29.96 in    
Wind  
Wind Speed 7 mph ()    
Max Wind Speed 14 mph    
Max Gust Speed -    
Visibility 6.2 miles    
Events      
Averages and records for this station are not official NWS values.
T = Trace of Precipitation, MM = Missing Value Source: Averaged Metar Reports

Daily Weather History Graph

Daily Weather History Graph

Search for Another Location

Airport or City:

Trip Planner

Search our weather history database for the weather conditions in past years. The results will help you decide how hot, cold, wet, or windy it might be!

Date:

Astronomy

Oct. 06, 2012 Rise Set
Actual Time 5:57 AM EET 5:38 PM EET
Civil Twilight 5:32 AM EET 6:03 PM EET
Nautical Twilight 5:04 AM EET 6:31 PM EET
Astronomical Twilight 4:36 AM EET 6:59 PM EET
Moon 9:53 PM EET (10/6) 11:18 AM EET (10/6)
Length of Visible Light 12h 30m
Length of Day
11h 41m
Waning Gibbous, 68% of the Moon is Illuminated
Oct 6
Waning Gibbous
Oct 8
Last Quarter
Oct 15
New
Oct 22
First Quarter
Oct 29
Full

Hourly Weather History & Observations

Time (EET) Temp. Heat Index Dew Point Humidity Pressure Visibility Wind Dir Wind Speed Gust Speed Precip Events Conditions
12:00 AM 77.0 °F - 68.0 °F 74% 29.98 in 6.2 mi NNW 4.6 mph - N/A   Scattered Clouds
1:00 AM 75.2 °F - 68.0 °F 78% 29.95 in 6.2 mi NNW 3.5 mph - N/A   Scattered Clouds
2:00 AM 75 °F - 67 °F 69% 29.97 in 6 mi NW 5.8 mph - -   Partly Cloudy
2:00 AM 75.2 °F - 66.2 °F 73% 29.98 in 6.2 mi NW 5.8 mph - N/A   Scattered Clouds
3:00 AM 75.2 °F - 66.2 °F 73% 29.95 in 6.2 mi NW 5.8 mph - N/A   Scattered Clouds
4:00 AM 75.2 °F - 66.2 °F 73% 29.95 in 6.2 mi NW 5.8 mph - N/A   Scattered Clouds
5:00 AM 73.4 °F - 66.2 °F 78% 29.95 in 6.2 mi NW 8.1 mph - N/A   Scattered Clouds
6:00 AM 75.2 °F - 66.2 °F 73% 29.95 in 6.2 mi NW 6.9 mph - N/A   Scattered Clouds
7:00 AM 77.0 °F - 66.2 °F 69% 29.95 in 6.2 mi NW 5.8 mph - N/A   Scattered Clouds
8:00 AM 78 °F - 67 °F 62% 29.96 in 6 mi NW 5.8 mph - -   Partly Cloudy
8:00 AM 78.8 °F - 68.0 °F 69% 29.95 in 6.2 mi NW 5.8 mph - N/A   Scattered Clouds
9:00 AM 80.6 °F 83.2 °F 68.0 °F 65% 29.95 in 6.2 mi NW 8.1 mph - N/A   Scattered Clouds
10:00 AM 82.4 °F 85.4 °F 68.0 °F 62% 29.98 in 6.2 mi WNW 9.2 mph - N/A   Scattered Clouds
11:00 AM 82.4 °F 85.4 °F 68.0 °F 62% 29.98 in 6.2 mi NW 11.5 mph - N/A   Scattered Clouds
12:00 PM 84.2 °F 87.3 °F 68.0 °F 58% 29.98 in 6.2 mi WNW 11.5 mph - N/A   Scattered Clouds
1:00 PM 84.2 °F 87.3 °F 68.0 °F 58% 29.95 in 6.2 mi WNW 11.5 mph - N/A   Scattered Clouds
2:00 PM 85 °F - 68 °F 48% 29.96 in 6 mi WNW 11.5 mph - -   Partly Cloudy
2:00 PM 84.2 °F 87.3 °F 68.0 °F 58% 29.95 in 6.2 mi WNW 11.5 mph - N/A   Scattered Clouds
3:00 PM 82.4 °F 85.4 °F 68.0 °F 62% 29.95 in 6.2 mi NW 13.8 mph - N/A   Scattered Clouds
4:00 PM 80.6 °F 83.2 °F 68.0 °F 65% 29.95 in 6.2 mi NW 11.5 mph - N/A   Scattered Clouds
5:00 PM 78.8 °F - 68.0 °F 69% 29.95 in 6.2 mi NNW 11.5 mph - N/A   Scattered Clouds
6:00 PM 78.8 °F - 64.4 °F 61% 29.95 in 6.2 mi NNW 9.2 mph - N/A   Scattered Clouds
7:00 PM 77.0 °F - 66.2 °F 69% 29.98 in 6.2 mi NW 9.2 mph - N/A   Scattered Clouds
8:00 PM 78 °F - 60 °F 44% 29.99 in 6 mi NNW 8.1 mph - -  
8:00 PM 77.0 °F - 66.2 °F 69% 29.98 in - NNW 8.1 mph - N/A   Clear
9:00 PM 77.0 °F - 66.2 °F 69% 29.98 in - NNW 11.5 mph - N/A   Clear
10:00 PM 77.0 °F - 66.2 °F 69% 29.98 in - NNW 8.1 mph - N/A   Clear
11:00 PM 75.2 °F - 64.4 °F 69% 29.98 in 6.2 mi North 6.9 mph - N/A   Partly Cloudy